Louisville Bowman, KY

6:01 AM EST on December 09, 2019 (GMT -0500)
Bowman

Weather History for KLOU - May, 2019

Change the Weather History Date:

Saturday, May 25, 2019

  Actual Average Record
Temperature  
Mean Temperature 80 °F 69 °F  
Max Temperature 89 °F 79 °F 92 °F (1953)
Min Temperature 70 °F 59 °F 43 °F (1992)
Degree Days  
Heating Degree Days 0 1  
Month to date heating degree days 47 68  
Since 1 July heating degree days 4101 4259  
Cooling Degree Days 15 5  
Month to date cooling degree days 117 78  
Year to date cooling degree days 134 112  
Growing Degree Days 29 (Base 50)    
Moisture  
Dew Point 64 °F    
Average Humidity 60    
Maximum Humidity 79    
Minimum Humidity 40    
Precipitation  
Precipitation 0.00 in 0.15 in 1.57 in (2004)
Month to date precipitation 2.85 4.23  
Year to date precipitation 26.26 19.03  
Sea Level Pressure  
Sea Level Pressure 30.04 in    
Wind  
Wind Speed 9 mph (SSW)    
Max Wind Speed 24 mph    
Max Gust Speed 34 mph    
Visibility 10 miles    
Events      
T = Trace of Precipitation, MM = Missing Value Source: NWS Daily Summary

Daily Weather History Graph

Daily Weather History Graph

Search for Another Location

Airport or City:

Astronomy

May. 25, 2019 Rise Set
Actual Time 6:24 AM EDT 8:54 PM EDT
Civil Twilight 5:54 AM EDT 9:25 PM EDT
Nautical Twilight 5:16 AM EDT 10:03 PM EDT
Astronomical Twilight 4:34 AM EDT 10:45 PM EDT
Moon 1:56 AM EDT (5/25) 12:21 PM EDT (5/25)
Length of Visible Light 15h 31m
Length of Day
14h 30m
Waning Gibbous, 60% of the Moon is Illuminated
May 25
Waning Gibbous
May 26
Last Quarter
Jun 3
New
Jun 10
First Quarter
Jun 17
Full

Hourly Weather History & Observations

Time (EDT) Temp. Heat Index Dew Point Humidity Pressure Visibility Wind Dir Wind Speed Gust Speed Precip Events Conditions
12:53 AM 75.0 °F - 63.0 °F 66% 30.04 in 10.0 mi SSW 4.6 mph - N/A   Clear
1:53 AM 73.0 °F - 63.0 °F 71% 30.04 in 10.0 mi South 3.5 mph - N/A   Overcast
2:53 AM 73.0 °F - 63.0 °F 71% 30.04 in 10.0 mi South 4.6 mph - N/A   Clear
3:53 AM 70.0 °F - 63.0 °F 78% 30.03 in 10.0 mi Calm Calm - N/A   Partly Cloudy
4:53 AM 70.0 °F - 63.0 °F 78% 30.03 in 10.0 mi Calm Calm - N/A   Scattered Clouds
5:53 AM 72.0 °F - 64.0 °F 76% 30.02 in 10.0 mi South 4.6 mph - N/A   Mostly Cloudy
6:53 AM 72.0 °F - 64.9 °F 78% 30.04 in 10.0 mi South 5.8 mph - N/A   Mostly Cloudy
7:53 AM 75.9 °F - 66.9 °F 74% 30.06 in 10.0 mi South 4.6 mph - N/A   Partly Cloudy
8:53 AM 78.1 °F - 68.0 °F 71% 30.08 in 10.0 mi SSW 9.2 mph - N/A   Clear
9:53 AM 82.0 °F 84.9 °F 68.0 °F 62% 30.08 in 10.0 mi SSW 10.4 mph 19.6 mph N/A   Clear
10:53 AM 84.0 °F 86.5 °F 66.9 °F 56% 30.07 in 10.0 mi SW 17.3 mph - N/A   Clear
11:53 AM 86.0 °F 88.2 °F 66.0 °F 51% 30.06 in 10.0 mi SSW 15.0 mph 26.5 mph N/A   Clear
12:53 PM 87.1 °F 88.3 °F 64.0 °F 46% 30.06 in 10.0 mi SW 15.0 mph 25.3 mph N/A   Clear
1:53 PM 88.0 °F 87.6 °F 60.1 °F 39% 30.05 in 10.0 mi SSW 17.3 mph 33.4 mph N/A   Clear
2:53 PM 88.0 °F 87.6 °F 60.1 °F 39% 30.04 in 10.0 mi SW 16.1 mph 26.5 mph N/A   Clear
3:53 PM 88.0 °F 87.9 °F 61.0 °F 40% 30.03 in 10.0 mi SSW 15.0 mph 26.5 mph N/A   Clear
4:53 PM 87.1 °F 88.3 °F 64.0 °F 46% 30.03 in 10.0 mi SSW 15.0 mph 25.3 mph N/A   Scattered Clouds
5:53 PM 86.0 °F 86.8 °F 63.0 °F 46% 30.04 in 10.0 mi SW 15.0 mph - N/A   Scattered Clouds
6:53 PM 86.0 °F 87.3 °F 64.0 °F 48% 30.04 in 10.0 mi SW 11.5 mph - N/A   Partly Cloudy
7:53 PM 84.9 °F 86.1 °F 64.0 °F 49% 30.04 in 10.0 mi SSW 9.2 mph - N/A   Clear
8:53 PM 82.9 °F 84.4 °F 64.0 °F 53% 30.04 in 10.0 mi SSW 9.2 mph - N/A   Clear
9:53 PM 80.1 °F 81.7 °F 64.0 °F 58% 30.03 in 10.0 mi South 6.9 mph - N/A   Clear
10:53 PM 80.1 °F 81.7 °F 64.0 °F 58% 30.04 in 10.0 mi South 6.9 mph - N/A   Mostly Cloudy
11:53 PM 79.0 °F - 63.0 °F 58% 30.04 in 10.0 mi SSW 6.9 mph - N/A   Mostly Cloudy